Location: Summit Observatory
(39.5293°N, 75.7290°W)
Time: 08:47:32
(UTC-05:00)

XW-2F - Pass Details

Date: 29 October 2019
Orbit: 502 x 524 km, 97.5° (Epoch: 12 November)

Event Time Altitude Azimuth Distance (km) Brightness Sun altitude
Rises 06:14:26 0° 30° (NNE) 2,609 ? -14.7°
Reaches altitude 10° 06:17:05 10° 51° (NE) 1,722 ? -14.1°
Maximum altitude 06:19:36 17° 94° (E) 1,326 ? -13.7°
Drops below altitude 10° 06:22:07 10° 137° (SE) 1,718 ? -13.2°
Sets 06:24:45 0° 157° (SSE) 2,602 ? -12.7°
